Regional Weather Roundup
Issued by NWS

Home | Current Version | Previous Version | Graphics & Text | Print | Product List | Glossary On
Versions: 1 2 3 4 5 6 7 8 9 10 11 12 13 14 15 16 17 18 19 20 21 22 23 24 25 26 27 28 29 30 31 32 33 34 35 36 37 38 39 40 41 42 43 44 45 46 47 48 49 50
000
ASUS43 KMKX 241211
RWRWI

WISCONSIN REGIONAL WEATHER ROUNDUP
NATIONAL WEATHER SERVICE MILWAUKEE/SULLIVAN WI
700 AM CDT SAT SEP 24 2016

NOTE: "FAIR" INDICATES FEW OR NO CLOUDS BELOW 12,000 FEET WITH NO
SIGNIFICANT WEATHER AND/OR OBSTRUCTIONS TO VISIBILITY.

WIZ001-002-006>008-014>016-023>028-241300-
NORTHWEST WISCONSIN

CITY           SKY/WX    TMP DP  RH WIND       PRES   REMARKS
SUPERIOR ARPT  CLOUDY    57  54  88 E7        30.17S
6HR MIN TEMP:  56; 6HR MAX TEMP:  58;

ASHLAND        CLOUDY    56  52  86 CALM      30.21S
6HR MIN TEMP:  55; 6HR MAX TEMP:  57;

HAYWARD        CLOUDY    57  52  83 VRB6      30.20R
6HR MIN TEMP:  57; 6HR MAX TEMP:  59;

SIREN          CLOUDY    60  55  85 SE7       30.15R
6HR MIN TEMP:  60; 6HR MAX TEMP:  62;

CUMBERLAND     CLOUDY    57  54  88 SE7       30.17R
RICE LAKE      CLOUDY    59  55  86 CALM      30.19R
6HR MIN TEMP:  59; 6HR MAX TEMP:  61;

CHETEK         NOT AVBL
LADYSMITH      CLOUDY    58  54  87 E9        30.22R
6HR MIN TEMP:  57; 6HR MAX TEMP:  59;

EAU CLAIRE     CLOUDY    61  56  83 E9        30.16R
6HR MIN TEMP:  61; 6HR MAX TEMP:  63;

MENOMONIE      CLOUDY    62  57  85 E6        30.16S
6HR MIN TEMP:  62; 6HR MAX TEMP:  64;

NEW RICHMOND   CLOUDY    60  57  91 SE8       30.14S
6HR MIN TEMP:  60; 6HR MAX TEMP:  62;

OSCEOLA        CLOUDY    61  61 100 SE12      30.16R
6HR MIN TEMP:  61; 6HR MAX TEMP:  63;

$$

WIZ003>005-009-010-017-018-241300-
NORTH CENTRAL WISCONSIN

CITY           SKY/WX    TMP DP  RH WIND       PRES   REMARKS
MANITOWISH WTR NOT AVBL
ARBOR VITAE    CLOUDY    57  53  87 SE7       30.25R
6HR MIN TEMP:  55; 6HR MAX TEMP:  57;

WOODRUFF       CLOUDY    57  53  87 SE7       30.25R
6HR MIN TEMP:  55; 6HR MAX TEMP:  57;

RHINELANDER    CLOUDY    53  52  96 E5        30.26S
6HR MIN TEMP:  51; 6HR MAX TEMP:  54; 6HR PCP: TRACE;

EAGLE RIVER    CLOUDY    54  49  84 SE5       30.26R
6HR MIN TEMP:  52; 6HR MAX TEMP:  54;

LAND O LAKES   CLOUDY    54  50  86 SE3       30.28S
6HR MIN TEMP:  51; 6HR MAX TEMP:  54; 6HR PCP:  0.01;

PHILLIPS       CLOUDY    53  52  95 E6        30.23S
6HR MIN TEMP:  51; 6HR MAX TEMP:  55;

TOMAHAWK       CLOUDY    53  50  89 CALM      30.26R
6HR MIN TEMP:  51; 6HR MAX TEMP:  55;

MEDFORD        CLOUDY    55  55 100 E8        30.22S
6HR MIN TEMP:  53; 6HR MAX TEMP:  55;

MERRILL        CLOUDY    55  53  94 E5        30.26R
6HR MIN TEMP:  53; 6HR MAX TEMP:  56;

$$

WIZ029-030-035-036-043>047-241300-
CENTRAL WISCONSIN

CITY           SKY/WX    TMP DP  RH WIND       PRES   REMARKS
WAUSAU         CLOUDY    55  52  89 E7        30.24R
6HR MIN TEMP:  54; 6HR MAX TEMP:  55;

MOSINEE        CLOUDY    55  55 100 E6        30.25R FOG
MARSHFIELD     CLOUDY    58  54  86 E8        30.21R
6HR MIN TEMP:  58; 6HR MAX TEMP:  59;

STEVENS POINT  CLOUDY    55  55  98 E5        30.25R
6HR MIN TEMP:  53; 6HR MAX TEMP:  55;

WAUPACA        CLOUDY    60  58  94 E3        30.24R
6HR MIN TEMP:  58; 6HR MAX TEMP:  60; 6HR PCP:  0.01;

WAUTOMA        CLOUDY    61  59  94 E6        30.22S
6HR MIN TEMP:  59; 6HR MAX TEMP:  60;

WISC RAPIDS    CLOUDY    59  57  93 E7        30.22S
6HR MIN TEMP:  58; 6HR MAX TEMP:  59;

CAMP DOUGLAS   HVY RAIN  59  59 100 E6        30.20R
                                      6HR PCP:  1.07;

$$

WIZ011>013-019>022-031-037>040-048>050-241300-
NORTHEAST WISCONSIN

CITY           SKY/WX    TMP DP  RH WIND       PRES   REMARKS
ANTIGO         CLOUDY    53  53  99 CALM      30.26S
6HR MIN TEMP:  53; 6HR MAX TEMP:  54;

SHAWANO        CLOUDY    58  55  88 CALM      30.26S
6HR MIN TEMP:  57; 6HR MAX TEMP:  59;

OCONTO         NOT AVBL
STURGEON BAY   CLOUDY    59  52  77 SE3       30.28R
6HR MIN TEMP:  57; 6HR MAX TEMP:  61;

GREEN BAY      CLOUDY    58  58 100 E5        30.26R
6HR MIN TEMP:  53; 6HR MAX TEMP:  59;

MANITOWOC      CLOUDY    60  53  77 MISG      30.26R
6HR MIN TEMP:  59; 6HR MAX TEMP:  62;

APPLETON       MOCLDY    59  57  94 E6        30.23R
CLINTONVILLE   NOT AVBL
OSHKOSH        CLOUDY    62  57  83 SE10      30.22R
6HR MIN TEMP:  61; 6HR MAX TEMP:  63;

$$

WIZ032>034-041-042-053>061-241300-
SOUTHWEST WISCONSIN

CITY           SKY/WX    TMP DP  RH WIND       PRES   REMARKS
LA CROSSE      CLOUDY    65  61  87 SE8       30.15S
6HR MIN TEMP:  65; 6HR MAX TEMP:  67;

SPARTA         CLOUDY    60  59  95 E6        30.18S
6HR MIN TEMP:  60; 6HR MAX TEMP:  62;

VIROQUA        CLOUDY    60  60 100 E6        30.17S VSB 3/4
6HR MIN TEMP:  60; 6HR MAX TEMP:  61;

BOSCOBEL       CLOUDY    65  63  93 CALM      30.16S FOG
6HR MIN TEMP:  64; 6HR MAX TEMP:  66;

PRAIRIE DU CHI CLOUDY    64  62  93 E5        30.14S FOG
6HR MIN TEMP:  64; 6HR MAX TEMP:  65;

PLATTEVILLE    CLOUDY    65  65 100 E7        30.17R
6HR MIN TEMP:  63; 6HR MAX TEMP:  65;

$$

WIZ056-057-062-063-064-067-068-241300-
SOUTH CENTRAL WISCONSIN

CITY           SKY/WX    TMP DP  RH WIND       PRES   REMARKS
REEDSBURG      NOT AVBL
BARABOO/DELLS  DRIZZLE   61  59  94 E5        30.20R
6HR MIN TEMP:  60; 6HR MAX TEMP:  61;

LONE ROCK      CLOUDY    64  60  87 E10       30.18R
6HR MIN TEMP:  64; 6HR MAX TEMP:  64;

MINERAL POINT  CLOUDY    64  63  94 E7        30.18R
MADISON        RAIN      62  59  90 SE9       30.20R
6HR MIN TEMP:  62; 6HR MAX TEMP:  63; 6HR PCP: TRACE;

MIDDLETON      CLOUDY    64  62  93 E9        30.20R
6HR MIN TEMP:  64; 6HR MAX TEMP:  65;

WATERTOWN      CLOUDY    61  60  97 E8        30.21R
6HR MIN TEMP:  59; 6HR MAX TEMP:  63;

MONROE         CLOUDY    63  59  88 E7        30.18R
JANESVILLE     DRIZZLE   64  63  94 E8        30.18R
$$

WIZ051-052-058>065-066-070>072-241300-
SOUTHEAST WISCONSIN

CITY           SKY/WX    TMP DP  RH WIND       PRES   REMARKS
MILWAUKEE      MOCLDY    64  57  78 E12       30.22R
6HR MIN TEMP:  64; 6HR MAX TEMP:  66;

WAUKESHA       CLOUDY    61  55  82 E7        30.22S
MILWAUKEE/TIMM CLOUDY    61  54  77 E6        30.22S
RACINE         CLOUDY    64  57  78 E9        30.23R
6HR MIN TEMP:  64; 6HR MAX TEMP:  66;

BURLINGTON     CLOUDY    61  56  85 E6        30.20R
6HR MIN TEMP:  61; 6HR MAX TEMP:  63;

KENOSHA        CLOUDY    64  59  83 E10       30.21R
6HR MIN TEMP:  63; 6HR MAX TEMP:  66;

FOND DU LAC    CLOUDY    61  57  87 SE7       30.23R
6HR MIN TEMP:  59; 6HR MAX TEMP:  62;

SHEBOYGAN      CLOUDY    61  54  77 E6        30.24R
6HR MIN TEMP:  61; 6HR MAX TEMP:  64;

WEST BEND      CLOUDY    57  54  88 E3        30.23R
JUNEAU         CLOUDY    59  57  93 E8        30.22S
6HR MIN TEMP:  59; 6HR MAX TEMP:  60;

$$

LSZ147-162-241300-
LAKE SUPERIOR

STATION/POSITION TIME  TEMP    WIND        PRES    WAVE
                       AIR SEA DIR/SP/G            HT/PER
                 (UTC) (F)     (DEG/KT/KT) (MB)    (FT/S)
W MID LAKE BUOY  1150   59 62  130/ 14/ 16 1023.3F   2/ 5
DEVILS ISLAND    1200   60     110/ 10/ 13 1023.2R
SAXON HARBOR     1100   59     180/  4/  7 1022.4F
$$

LMZ867-665-643>646-241300-
LAKE MICHIGAN

STATION/POSITION TIME  TEMP    WIND        PRES    WAVE
                       AIR SEA DIR/SP/G            HT/PER
                 (UTC) (F)     (DEG/KT/KT) (MB)    (FT/S)
CHAMBERS ISLAND  1100   61      90/  4/  8 1024.4R
S GREEN BAY BUOY 1200   62 66  120/  8/ 10 1024.2
N MID LAKE BUOY  1150   60 68  140/ 12/ 14 1025.5R   2/ 3
NORTHPORT PIER   1C1F1C2F2C3F3C4F4C5F5C6F6C7F7C8M1C9M2Ca!



USA.gov is the U.S. government's official web portal to all federal, state and local government web resources and services.